Location: Pine Creek
(45.5072°N, 110.5649°W)
Time: 16:11:01
(UTC+00:00)

Envisat - Pass Details

Date: 28 January 2022
Orbit: 764 x 765 km, 98.2° (Epoch: 19 May)

Event Time Altitude Azimuth Distance (km) Brightness Sun altitude
Rises 13:02:51 0° 7° (N) 3,242 6.2 -18.4°
Reaches altitude 10° 13:05:16 10° 360° (N) 2,311 5.4 -18.0°
Maximum altitude 13:10:00 40° 292° (WNW) 1,114 3.3 -17.2°
Drops below altitude 10° 13:14:42 10° 223° (SW) 2,298 5.1 -16.3°
Sets 13:17:06 0° 216° (SW) 3,220 6.0 -15.9°
